Theta_e
278 277 277 276 277 277 277 278 281 282 285 287 295 294 294 294 296 300 299 312 311 308
277 276 275 276 276 275 277 279 280 281 283 288 293 293 293 293 293 299 299 312 310 308
276 276 275 275 274 276 276 277 277 279 281 282 286 294 292 292 292 294 299 303 310 308
275 275 275 274 274 274 275 276 277 278 278 282 284 286 291 291 291 291 294 297 309 307
275 274 273 273 272 273 272 274 274 276 277 278 280 283 291 290 290 290 290 296 308 307
273 273 272 272 273 273 273 272 273 274 275 277 280 282 287 290 290 289 290 294 297 307
272 272 272 272 271 271 272 272 272 273 275 277 278 279 284 288 289 289 290 292 295 306
272 272 271 271 271 270 271 272 272 273 275 277 277 278 280 285 289 288 288 289 294 307
271 271 270 269 269 269 269 270 270 271 272 275 277 279 281 283 285 288 287 287 291 299
270 268 268 267 267 267 267 268 269 270 271 273 277 280 282 283 283 287 288 287 288 291
267 266 266 265 265 266 267 267 268 268 269 272 275 280 281 283 283 284 287 288 288 290
265 263 263 263 264 266 266 267 267 268 268 269 272 279 282 284 286 286 287 288 289 291
263 262 262 264 266 267 268 270 270 270 270 270 271 278 281 285 287 286 287 288 289 291
262 262 264 265 265 266 267 270 270 270 270 270 274 277 282 287 285 286 286 288 291 296
Wind_Speed
16 12 12 16 14 12 13 15 17 17 17 20 13 8 9 11 14 12 18 25 19 14
15 16 17 18 16 15 16 14 17 18 19 16 19 9 9 7 14 12 18 20 21 15
18 18 16 16 20 17 16 19 21 18 16 18 17 15 8 9 12 13 12 14 21 19
19 18 17 16 16 17 19 16 19 17 17 18 16 17 9 10 10 14 15 16 20 20
19 20 19 17 18 18 19 18 19 18 18 18 17 15 16 11 9 12 13 17 17 20
19 19 20 20 19 19 19 19 20 18 19 17 17 17 17 11 9 10 13 17 15 24
20 20 20 19 20 19 18 19 18 18 19 17 16 17 15 15 9 9 12 19 13 21
21 21 21 19 19 20 20 18 19 18 18 15 14 13 16 15 10 9 11 14 15 22
21 21 22 20 19 20 20 19 19 18 18 18 13 19 27 24 16 12 12 13 15 15
21 23 22 21 20 20 20 19 20 18 17 18 17 25 27 28 17 15 14 11 14 14
22 23 22 21 20 20 18 18 18 18 17 17 16 26 28 28 18 17 16 14 15 17
22 23 22 21 22 20 19 18 17 16 17 17 18 27 28 23 16 14 15 14 16 15
22 22 22 22 20 20 19 19 15 16 14 18 18 27 28 22 8 10 10 13 17 19
21 21 20 20 19 19 19 18 17 15 14 14 17 17 26 22 10 10 11 10 11 11
Wind_Direction
310 301 305 299 294 294 298 288 292 295 293 301 259 242 276 282 282 267 290 205 183 176
310 307 305 295 305 295 287 290 292 293 300 291 282 235 256 289 282 294 290 195 183 180
313 307 299 304 298 291 304 297 290 290 291 297 302 263 238 275 296 303 281 289 185 183
311 308 302 297 298 296 295 296 297 298 294 287 286 297 228 257 271 272 274 292 198 182
312 311 306 298 299 296 292 288 289 284 284 286 282 288 266 242 258 275 310 302 181 181
314 310 308 302 302 299 294 294 288 286 282 277 282 276 289 259 270 294 278 284 309 181
314 311 306 304 300 294 291 290 287 283 278 271 281 283 280 277 261 278 278 300 293 196
314 310 308 306 305 299 294 289 292 287 292 268 270 273 271 278 264 265 287 302 280 205
314 313 312 306 304 301 297 289 283 281 279 276 262 264 265 262 270 266 269 279 289 273
318 314 314 312 306 300 296 291 285 279 278 277 265 264 265 259 254 261 257 267 285 288
319 314 313 310 306 300 293 287 283 281 276 274 280 268 264 252 252 249 255 260 267 276
320 312 311 307 303 296 288 280 275 273 275 272 274 271 266 253 241 234 242 250 258 253
316 309 307 306 309 305 293 287 275 270 263 262 263 265 269 272 226 237 244 247 255 247
312 306 309 313 311 309 303 294 278 264 263 257 258 267 268 263 244 240 244 249 253 218